{"data":{"norad_id":69400,"intl_designator":"2026-124U","name":"CZ-6A R/B","alt_names":[],"object_type":"ROCKET_BODY","status":"UNKNOWN","operator":null,"country":"PRC","launch_date":"2026-06-04","launch_site_code":"TAISC","launch_vehicle":null,"mission":null,"orbit_class":"UNKNOWN","rcs_meters":null,"size_class":null,"mass_kg":null,"dimensions":null,"purposes":[],"wikipedia_slug":null,"has_3d_model":false,"image_url":null,"decayed_at":null,"tle_current":{"epoch":"2026-07-02T19:44:05.595072Z","epoch_age_seconds":6919144,"freshness":"OLD","line1":"1 69400U 26124U   26183.82228698  .00000293  00000+0  56824-4 0  9991","line2":"2 69400  89.0260   0.1255 0098072   8.7903 351.4996 14.57310905  4132","mean_motion":14.57310905,"eccentricity":0.0098072,"inclination_deg":89.026,"raan_deg":0.1255,"arg_perigee_deg":8.7903,"mean_anomaly_deg":351.4996,"bstar":5.6824e-5,"rev_number":413,"period_min":98.812133708695,"perigee_km":632.43513449641,"apogee_km":771.30522734587,"semimajor_km":7080.0071809211,"source":"CELESTRAK","updated_at":"2026-07-04T09:00:21.514183Z"}}}